DW7371 Weather Reports


Display with metric or nautical units.
time (UTC)temp
F
wind
direction
speed
MPH
gust
MPH
rain 1hr
in
rain 24hr
in
rain mn
in
humidity
%
barometer
mb
20260906152532 52 68 0.0 1.0 0.00 0.00 0.00 95 1014.6
20260906150321 50 187 0.0 0.0 0.00 0.00 0.00 95 1014.8
20260906145259 52 5 0.0 0.0 0.00 0.00 0.00 95 1014.6
20260906144228 52 355 0.0 0.0 0.00 0.00 0.00 95 1014.6
20260906143243 52 355 0.0 0.0 0.00 0.00 0.00 96 1014.7
20260906142247 51 178 0.0 0.0 0.00 0.00 0.00 96 1014.8
20260906141254 49 211 0.0 0.0 0.00 0.00 0.00 95 1014.7
20260906140319 51 131 0.0 2.0 0.00 0.00 0.00 95 1014.5
20260906135324 51 128 1.0 2.0 0.00 0.00 0.00 95 1014.4
20260906134311 50 117 0.0 1.0 0.00 0.00 0.00 95 1014.2
20260906133242 48 155 0.0 1.0 0.00 0.00 0.00 94 1014.1
20260906132300 51 129 0.0 1.0 0.00 0.00 0.00 95 1014.0
20260906131308 50 118 0.0 0.0 0.00 0.00 0.00 95 1014.0
20260906130244 51 118 0.0 0.0 0.00 0.00 0.00 94 1014.0
20260906125226 51 118 0.0 0.0 0.00 0.00 0.00 94 1014.0
20260906124217 51 164 0.0 0.0 0.00 0.00 0.00 95 1014.1
20260906123207 50 164 0.0 1.0 0.00 0.00 0.00 93 1014.2
20260906122147 52 119 0.0 1.0 0.00 0.00 0.00 94 1014.3
20260906120035 52 119 0.0 0.0 0.00 0.00 0.00 95 1014.3
20260906115044 51 178 0.0 0.0 0.00 0.00 0.00 94 1014.4
20260906114023 50 178 0.0 0.0 0.00 0.00 0.00 94 1014.2
20260906113016 51 131 0.0 0.0 0.00 0.00 0.00 94 1014.2
20260906112022 51 131 0.0 0.0 0.00 0.00 0.00 93 1014.3
20260906111027 51 131 0.0 0.0 0.00 0.00 0.00 93 1014.3
20260906110019 52 131 0.0 1.0 0.00 0.00 0.00 93 1014.4
20260906105032 52 162 0.0 3.0 0.00 0.00 0.00 91 1014.3
20260906101725 52 117 0.0 0.0 0.00 0.00 0.00 93 1014.2
20260906100650 52 117 0.0 0.0 0.00 0.00 0.00 94 1014.3
20260906095619 51 117 0.0 0.0 0.00 0.00 0.00 94 1014.2
20260906094546 51 130 0.0 0.0 0.00 0.00 0.00 93 1014.3
20260906093548 51 130 0.0 0.0 0.00 0.00 0.00 92 1014.3
20260906092522 53 69 0.0 0.0 0.00 0.00 0.00 93 1014.2
20260906091519 52 69 0.0 0.0 0.00 0.00 0.00 92 1014.4
20260906090445 53 69 0.0 0.0 0.00 0.00 0.00 92 1014.4
20260906083111 52 79 0.0 1.0 0.00 0.00 0.00 93 1014.6
20260906082055 52 12 0.0 0.0 0.00 0.00 0.00 91 1014.7
20260906081108 53 12 0.0 0.0 0.00 0.00 0.00 92 1014.7
20260906080127 53 12 0.0 2.0 0.00 0.00 0.00 91 1014.7
20260906075114 54 119 0.0 0.0 0.00 0.00 0.00 90 1014.6
20260906074130 54 119 0.0 0.0 0.00 0.00 0.00 91 1014.6
20260906073101 53 119 0.0 0.0 0.00 0.00 0.00 92 1014.6
20260906072115 53 119 0.0 0.0 0.00 0.00 0.00 88 1014.6
20260906065911 55 119 0.0 0.0 0.00 0.00 0.00 89 1014.9
20260906064837 54 119 0.0 0.0 0.00 0.00 0.00 88 1014.9
20260906061537 55 119 0.0 0.0 0.00 0.00 0.00 88 1014.6
20260906060512 55 119 0.0 0.0 0.00 0.00 0.00 87 1014.5
20260906055447 55 119 0.0 0.0 0.00 0.00 0.00 87 1014.6
20260906053345 55 159 0.0 2.0 0.00 0.00 0.00 87 1014.8
20260906052337 57 178 0.0 0.0 0.00 0.00 0.00 84 1014.9
20260906051345 57 117 0.0 0.0 0.00 0.00 0.00 84 1014.9
20260906050346 56 117 0.0 0.0 0.00 0.00 0.00 86 1015.0
20260906045356 57 114 0.0 0.0 0.00 0.00 0.00 83 1015.0
20260906043315 58 114 0.0 0.0 0.00 0.00 0.00 81 1015.0
20260906042247 59 119 0.0 0.0 0.00 0.00 0.00 81 1014.9
20260906041301 59 142 0.0 0.0 0.00 0.00 0.00 80 1015.0
20260906040305 59 144 0.0 0.0 0.00 0.00 0.00 79 1014.8
20260906035320 60 144 0.0 0.0 0.00 0.00 0.00 79 1014.8
20260906034257 60 144 0.0 0.0 0.00 0.00 0.00 78 1014.7
20260906033241 60 144 0.0 0.0 0.00 0.00 0.00 79 1014.8
20260906031120 61 148 0.0 2.0 0.00 0.00 0.00 77 1014.8
20260906030142 61 182 0.0 3.0 0.00 0.00 0.00 76 1014.9
20260906025153 62 167 1.0 3.0 0.00 0.00 0.00 75 1015.0
20260906023006 64 117 0.0 0.0 0.00 0.00 0.00 73 1014.9
20260906022024 65 122 0.0 0.0 0.00 0.00 0.00 70 1014.8
20260906021041 67 191 0.0 3.0 0.00 0.00 0.00 67 1014.6
20260906015126 69 314 0.0 1.0 0.00 0.00 0.00 64 1014.4
20260906013007 69 282 0.0 2.0 0.00 0.00 0.00 64 1014.4
20260906011948 68 288 1.0 2.0 0.00 0.00 0.00 65 1014.3
20260906011001 68 286 1.0 4.0 0.00 0.00 0.00 65 1014.3
20260906005932 69 240 0.0 4.0 0.00 0.00 0.00 64 1014.3
20260906004956 68 278 1.0 6.0 0.00 0.00 0.00 65 1014.3
20260906002918 70 290 1.0 3.0 0.00 0.00 0.00 63 1014.3
20260906001924 70 268 1.0 0.0 0.00 0.00 0.00 63 1014.3
20260906000856 69 277 1.0 4.0 0.00 0.00 0.00 63 1014.4
20260905235902 69 17 2.0 7.0 0.00 0.00 0.00 64 1014.4
20260905234911 68 324 3.0 7.0 0.00 0.00 0.00 64 1014.3
20260905233845 69 34 2.0 6.0 0.00 0.00 0.00 63 1014.3
20260905232857 67 0 1.0 5.0 0.00 0.00 0.00 65 1014.2
20260905231842 70 337 3.0 7.0 0.00 0.00 0.00 60 1014.1
20260905230900 69 177 4.0 8.0 0.00 0.00 0.00 62 1014.2
20260905225907 69 188 4.0 9.0 0.00 0.00 0.00 62 1014.3
20260905224910 68 170 3.0 9.0 0.00 0.00 0.00 64 1014.4
20260905223855 69 142 2.0 6.0 0.00 0.00 0.00 63 1014.4
20260905221717 70 131 2.0 8.0 0.00 0.00 0.00 62 1014.5
20260905220728 71 40 2.0 6.0 0.00 0.00 0.00 62 1014.4
20260905215739 69 314 2.0 6.0 0.00 0.00 0.00 64 1014.5
20260905214739 69 340 3.0 6.0 0.00 0.00 0.00 66 1014.5
20260905213752 68 355 3.0 6.0 0.00 0.00 0.00 66 1014.5
20260905211648 67 333 3.0 7.0 0.00 0.00 0.00 68 1014.8
20260905210617 68 53 3.0 7.0 0.00 0.00 0.00 68 1014.8
20260905205543 67 5 3.0 7.0 0.00 0.00 0.00 68 1015.0
20260905204554 69 355 2.0 5.0 0.00 0.00 0.00 65 1015.0
20260905202521 67 312 2.0 6.0 0.00 0.00 0.00 68 1015.1
20260905201459 67 82 2.0 6.0 0.00 0.00 0.00 68 1015.1
20260905200450 67 23 2.0 6.0 0.00 0.00 0.00 66 1015.1
20260905195444 67 338 2.0 5.0 0.00 0.00 0.00 66 1015.2
20260905193256 66 334 3.0 7.0 0.00 0.00 0.00 70 1015.3
20260905192257 66 22 2.0 7.0 0.00 0.00 0.00 70 1015.3
20260905191244 65 11 3.0 7.0 0.00 0.00 0.00 73 1015.4
20260905190211 66 46 2.0 7.0 0.00 0.00 0.00 70 1015.5
20260905185206 65 61 2.0 5.0 0.00 0.00 0.00 71 1015.6
20260905184134 64 212 4.0 7.0 0.00 0.00 0.00 73 1015.6
20260905183114 64 162 3.0 9.0 0.00 0.00 0.00 72 1015.6
20260905182124 64 186 3.0 9.0 0.00 0.00 0.00 75 1015.7
20260905181139 63 201 4.0 7.0 0.00 0.00 0.00 75 1015.7
20260905173904 63 207 1.0 7.0 0.00 0.00 0.00 78 1015.6
20260905172848 63 114 1.0 7.0 0.00 0.00 0.00 77 1015.5
20260905171839 63 5 0.0 4.0 0.00 0.00 0.00 78 1015.7
20260905170852 62 331 2.0 4.0 0.00 0.00 0.00 80 1015.8
20260905165818 61 334 2.0 3.0 0.00 0.00 0.00 81 1015.8
20260905164816 61 336 1.0 3.0 0.00 0.00 0.00 82 1015.8
20260905162625 60 269 0.0 2.0 0.00 0.00 0.00 84 1015.6
20260905161554 60 244 0.0 3.0 0.00 0.00 0.00 83 1015.6
20260905160545 59 188 1.0 4.0 0.00 0.00 0.00 86 1015.5
20260905155519 58 183 2.0 4.0 0.00 0.00 0.00 89 1015.3
20260905154448 57 186 1.0 3.0 0.00 0.00 0.00 92 1015.2
20260905153458 57 170 0.0 0.0 0.00 0.00 0.00 93 1015.3